Location: Kellogg
(38.0159°N, 90.0546°W)
Time: 20:02:25
(UTC+00:00)

Tiros 1 despin weight - Pass Details

Date: 19 September 2024
Orbit: 572 x 614 km, 48.2° (Epoch: 08 October)

Event Time Altitude Azimuth Distance (km) Brightness Sun altitude
Exits shadow 10:45:48 - 307° (NW) 2,208 ? -12.6°
Reaches altitude 10° 10:46:32 10° 312° (NW) 1,984 ? -12.4°
Maximum altitude 10:50:11 23° 5° (N) 1,327 ? -11.7°
Drops below altitude 10° 10:53:50 10° 59° (ENE) 1,987 ? -11.0°
Sets 10:56:33 0° 74° (ENE) 2,891 ? -10.5°
